RH
55 52 48 48 50 56 62 67 71 85 100 94 73 87 81 82 80 70 70 67 69 74 77 83 84 72 70 62 51 41 38 38 40 34 31 31 28 27
50 44 49 53 58 68 80 85 92 88 71 71 81 79 74 67 66 66 70 69 69 68 67 64 58 50 43 38 31 24 24 28 25 25 23 24 22 20
47 55 63 72 86 85 88 88 96 87 76 66 64 60 63 66 70 65 66 62 56 50 49 46 41 34 31 24 17 16 18 18 19 18 17 17 17 16
62 70 80 80 85 82 73 83 93 96 84 75 55 60 67 71 61 51 45 35 34 38 37 32 27 25 20 14 14 14 15 15 14 14 14 14 15 13
83 90 85 84 89 92 100 93 93 95 71 58 71 70 78 67 55 40 25 21 23 22 20 19 17 15 14 13 13 13 13 13 13 12 12 12 11 11
76 84 86 91 95 95 94 94 86 77 74 72 81 84 63 51 34 28 18 17 16 15 14 13 13 13 15 15 13 12 11 12 12 12 12 11 10 11
80 94 93 86 83 82 82 91 87 81 83 74 62 48 36 26 23 19 15 13 14 13 13 14 14 15 16 14 12 12 12 11 11 11 10 10 10 10
92 83 83 91 87 89 94 82 70 42 38 37 26 25 21 20 15 13 13 13 13 15 14 15 16 15 15 13 12 11 11 11 11 10 10 10 10 9
100 92 80 78 87 80 62 49 33 28 25 22 20 20 16 14 12 12 12 14 16 15 15 16 16 16 15 14 12 11 11 11 11 10 10 10 10 10
78 77 77 81 71 47 28 26 26 26 24 17 14 14 12 12 12 12 14 16 16 15 16 16 15 14 14 14 11 10 10 11 11 10 10 10 10 11
82 76 70 57 35 28 24 22 20 18 13 12 12 12 12 13 14 14 15 15 16 15 16 16 14 13 13 12 11 10 10 10 10 9 8 8 8 8
58 50 36 26 24 21 16 12 12 12 11 10 11 12 12 13 13 14 14 14 15 16 15 15 14 12 11 10 10 10 9 8 8 8 8 7 7 8
27 25 23 19 16 14 12 10 10 10 10 10 10 11 11 11 11 12 13 14 15 15 14 14 13 12 10 9 10 9 8 8 8 8 8 7 8 8
19 16 14 13 11 10 10 9 8 8 9 9 9 9 10 10 10 11 12 13 13 14 14 13 11 11 9 9 10 8 8 9 8 8 8 8 8 9
14 12 11 10 9 9 8 8 8 9 8 8 8 8 8 9 10 11 11 12 13 13 13 12 10 10 10 9 9 9 9 8 7 8 8 8 9 10
10 10 9 8 8 7 8 8 7 7 7 6 6 7 8 9 10 10 11 12 12 12 12 11 10 10 10 9 9 10 9 8 7 8 8 8 8 10
9 8 8 7 7 7 7 6 6 6 6 5 5 6 7 8 9 10 11 11 12 12 12 11 10 10 10 10 11 10 9 8 8 8 8 9 9 10
8 7 7 7 6 6 5 5 5 4 4 4 5 6 6 8 9 10 11 12 12 12 12 11 10 10 10 11 13 10 9 9 9 9 9 10 10 10
7 6 6 5 4 4 4 4 4 4 5 5 6 6 7 8 9 11 12 12 12 12 12 11 11 11 11 14 14 10 9 9 9 10 10 10 11 11
5 4 4 4 4 4 4 4 5 5 5 6 7 7 8 8 10 11 12 12 13 12 12 11 11 12 14 15 14 11 11 11 11 11 11 11 11 12
4 4 4 4 4 4 5 5 5 6 6 7 8 8 9 10 11 11 12 12 13 12 12 12 13 14 16 16 14 12 13 13 13 12 11 10 10 11
4 5 5 5 5 5 6 6 6 7 7 8 9 10 10 11 12 12 12 12 13 13 14 14 14 16 17 17 14 13 13 15 15 14 14 14 12 10
5 5 5 6 6 6 7 7 7 8 8 9 10 11 12 12 12 13 13 12 14 15 15 15 16 17 17 16 14 13 14 14 14 14 14 14 13 12
Wind_Speed
65 68 71 73 75 76 78 80 81 84 84 91 89 87 85 86 86 88 90 91 93 95 96 97 97 95 94 93 89 83 82 81 78 75 74 73 76 77
72 75 78 80 81 84 86 91 90 91 89 90 92 93 94 93 91 93 94 97 99 99 100 100 99 99 96 91 86 82 80 79 77 75 75 76 80 81
78 81 86 86 89 95 96 97 97 99 96 93 97 100 100 100 100 97 97 97 97 98 97 98 96 93 89 84 79 78 77 76 75 78 79 81 83 81
86 88 92 96 97 100 100 100 104 103 104 104 106 105 105 107 105 99 94 92 89 90 91 90 89 86 84 81 78 76 76 77 77 78 77 79 80 80
94 97 100 101 102 104 106 107 107 110 112 110 109 110 111 110 107 100 90 84 83 85 88 89 86 83 80 78 75 74 75 76 76 78 78 78 78 78
101 102 103 105 107 109 112 114 114 114 114 114 114 115 109 107 102 98 86 83 82 84 85 83 81 75 73 72 72 73 75 75 74 75 76 75 74 75
105 106 108 110 111 112 113 114 116 116 117 115 110 106 103 101 98 93 88 86 85 83 80 75 72 68 68 70 72 71 71 71 70 69 68 70 69 70
109 110 110 113 114 115 118 118 118 114 109 109 104 102 98 97 94 92 89 87 81 78 74 70 67 66 67 70 70 68 67 66 65 65 64 65 65 65
112 112 112 112 116 117 116 115 112 112 110 106 102 101 99 98 93 90 87 82 79 75 71 68 63 64 65 66 66 64 63 60 60 60 59 60 60 61
111 112 113 114 116 115 113 111 109 110 111 108 103 102 100 95 90 87 82 78 75 71 66 67 62 62 63 63 62 60 57 54 55 55 55 57 57 59
109 111 113 113 114 115 114 109 105 105 108 105 102 96 92 88 84 80 77 73 69 66 62 64 63 63 61 59 58 56 52 50 51 51 51 52 54 57
106 110 113 112 111 111 112 109 105 104 103 97 91 86 82 80 77 74 70 65 62 60 59 60 62 60 58 54 51 50 48 48 47 48 48 50 53 55
106 108 109 110 110 110 110 107 102 96 93 86 82 78 76 74 70 66 62 59 57 56 57 57 58 56 55 49 46 45 44 44 44 45 46 48 51 53
105 107 108 110 109 107 104 101 94 87 83 77 73 72 71 67 63 59 57 56 55 54 55 55 55 52 50 45 42 42 40 41 42 43 44 47 50 53
108 108 108 106 105 102 95 88 84 79 73 70 67 65 62 59 55 55 54 52 52 52 53 52 50 47 45 42 40 39 37 40 41 43 44 45 49 52
108 107 105 101 97 89 85 80 75 71 68 63 60 57 54 52 52 50 48 48 50 50 50 48 46 44 41 39 37 37 38 38 38 41 43 44 47 52
101 100 97 94 87 83 79 73 69 66 62 57 53 50 49 48 46 46 46 47 47 48 47 45 43 40 39 36 36 37 37 37 38 39 41 45 47 52
92 90 88 84 80 76 72 67 62 58 53 49 46 44 44 43 43 43 44 45 45 45 44 42 39 37 36 34 36 37 36 37 37 39 41 44 48 52
82 80 77 74 72 68 61 57 52 48 45 42 40 39 39 39 40 41 42 42 42 42 41 38 36 35 34 34 35 36 36 36 37 39 42 45 47 51
72 70 67 63 58 54 50 46 43 41 38 35 33 34 35 37 38 39 39 39 39 39 38 36 34 32 34 34 33 36 37 37 38 40 42 44 48 52
62 58 54 51 47 44 41 39 37 35 33 32 31 31 32 33 34 36 37 37 37 37 35 34 33 33 34 33 33 36 37 38 39 42 44 45 48 52
51 48 45 41 38 35 33 32 30 29 28 27 27 28 29 31 33 35 35 35 34 34 34 33 34 34 33 32 34 36 38 39 41 43 44 46 50 54
42 39 36 33 31 29 27 26 24 23 23 23 24 26 28 31 33 33 32 31 30 32 33 34 34 35 35 34 34 35 38 42 44 45 45 48 51 54
Wind_Direction
285 285 286 288 291 291 293 293 293 295 296 296 295 295 294 293 291 290 288 287 286 287 288 288 287 286 285 284 284 281 278 275 272 268 263 258 256 252
285 287 289 290 290 291 291 292 294 294 294 295 295 294 294 293 292 290 288 287 286 285 286 285 285 284 284 284 281 279 275 271 267 263 259 256 252 250
288 288 289 289 291 292 292 294 294 294 295 295 294 293 292 292 292 292 291 290 288 286 285 284 284 283 284 282 279 276 271 267 264 260 257 255 252 251
288 289 289 290 291 292 293 293 294 294 293 294 293 293 294 294 293 292 291 289 287 286 284 283 283 282 282 279 275 272 268 264 261 259 257 255 253 251
287 288 289 290 291 291 292 293 293 293 292 294 294 294 295 294 294 293 290 290 287 284 283 282 282 281 278 275 271 268 266 264 261 259 258 256 255 252
289 289 289 289 290 291 292 293 293 294 293 293 294 294 294 294 294 293 293 289 287 284 283 282 281 278 274 272 270 267 266 264 262 261 259 258 256 252
290 290 290 291 292 293 292 292 293 293 293 293 293 292 293 292 292 292 292 291 289 287 283 282 280 276 273 270 268 268 267 266 263 261 260 258 256 252
289 290 291 292 292 292 292 292 292 293 294 293 292 293 293 292 293 292 292 290 287 284 285 282 278 275 272 270 270 270 268 266 264 262 259 256 252 249
291 290 290 291 291 291 292 292 293 294 294 293 294 294 294 293 292 290 289 287 285 284 283 279 275 273 271 270 271 270 269 267 264 261 256 252 248 244
290 291 291 291 290 290 292 293 293 293 293 293 295 294 293 292 290 287 286 285 282 281 278 276 273 269 269 270 271 271 269 266 262 258 254 248 244 241
293 291 290 290 291 292 291 291 292 291 291 293 293 292 289 287 285 283 282 280 278 277 274 272 270 269 269 269 270 270 268 264 258 254 250 245 240 237
290 289 290 290 289 290 291 293 293 293 293 293 291 287 285 282 281 279 278 276 274 273 270 268 268 269 269 269 269 267 265 261 255 251 246 241 237 233
289 289 289 291 291 292 293 294 295 294 293 290 287 284 281 279 278 276 274 272 271 268 267 265 266 268 270 269 266 265 263 259 254 250 244 237 232 229
290 291 291 292 293 294 295 295 295 293 289 287 284 280 279 277 275 272 270 267 265 264 263 264 266 267 269 269 266 263 260 258 254 246 239 232 228 226
293 293 293 294 294 294 294 293 292 290 288 284 282 278 276 274 270 266 264 264 262 261 261 263 265 266 268 267 263 263 260 257 250 242 236 230 225 224
294 295 295 295 295 295 294 293 291 289 287 284 281 277 273 270 266 265 262 259 257 258 260 262 264 266 266 264 264 263 260 254 246 240 236 232 227 223
295 295 295 296 296 296 294 293 292 290 287 284 279 274 270 266 263 260 257 256 256 257 260 261 263 264 263 264 264 261 259 250 244 240 237 233 229 226
296 296 295 295 294 293 293 292 290 288 285 282 277 272 267 262 258 256 254 254 255 257 258 259 260 261 262 263 263 263 255 248 243 239 237 234 232 229
297 296 295 293 292 292 292 289 287 284 282 279 275 268 264 259 255 252 252 253 254 255 257 258 258 259 262 261 261 259 253 249 244 239 236 234 232 231
296 295 294 293 292 291 288 287 285 282 279 276 271 264 260 256 252 251 251 251 252 253 255 256 257 258 259 258 258 253 251 249 245 242 238 235 234 235
296 295 294 293 291 289 289 286 283 281 277 272 266 260 256 253 249 246 246 248 249 252 255 256 256 255 256 257 256 250 248 247 246 245 244 241 239 235
295 295 294 292 291 289 286 282 279 276 270 264 258 252 249 246 243 243 246 248 250 252 254 256 257 257 256 256 253 247 245 245 246 246 245 246 245 242
295 294 292 290 289 285 280 277 273 268 262 257 252 248 244 243 244 246 249 252 250 251 255 257 258 259 259 258 253 246 244 248 247 246 248 250 250 250